Madison, SD

11:40 PM CST on November 20, 2019 (GMT -0600)
Madison Municipal

Weather History for KMDS - October, 2019

Change the Weather History Date:

Tuesday, October 22, 2019

  Actual Average Record
Temperature  
Mean Temperature 40 °F -  
Max Temperature 48 °F 58 °F 71 °F (2010)
Min Temperature 32 °F 35 °F 30 °F (2013)
Degree Days  
Heating Degree Days 25    
Moisture  
Dew Point 32 °F    
Average Humidity 79    
Maximum Humidity 100    
Minimum Humidity 46    
Precipitation  
Precipitation 0.00 in - - ()
Sea Level Pressure  
Sea Level Pressure 29.76 in    
Wind  
Wind Speed 23 mph ()    
Max Wind Speed 33 mph    
Max Gust Speed 45 mph    
Visibility 10.0 miles    
Events      
Averages and records for this station are not official NWS values.
T = Trace of Precipitation, MM = Missing Value Source: Averaged Metar Reports

Daily Weather History Graph

Daily Weather History Graph

Search for Another Location

Airport or City:

Astronomy

Oct. 22, 2019 Rise Set
Actual Time 7:51 AM CDT 6:33 PM CDT
Civil Twilight 7:22 AM CDT 7:02 PM CDT
Nautical Twilight 6:48 AM CDT 7:36 PM CDT
Astronomical Twilight 6:15 AM CDT 8:09 PM CDT
Moon 12:45 AM CDT (10/22) 3:59 PM CDT (10/22)
Length of Visible Light 11h 40m
Length of Day
10h 41m
Last Quarter, 37% of the Moon is Illuminated
Oct 22
Last Quarter
Oct 27
New
Nov 4
First Quarter
Nov 12
Full
Nov 19
Last Quarter

Hourly Weather History & Observations

Time (CDT) Temp. Windchill Dew Point Humidity Pressure Visibility Wind Dir Wind Speed Gust Speed Precip Events Conditions
12:00 AM 39.2 °F 27.2 °F 39.2 °F 100% 29.64 in 10.0 mi NW 31.1 mph 42.6 mph N/A   Overcast
12:35 AM 37.4 °F 25.2 °F 37.4 °F 100% 29.65 in 10.0 mi NW 28.8 mph 43.7 mph N/A   Overcast
12:40 AM 37.4 °F 24.8 °F 37.4 °F 100% 29.65 in 10.0 mi NW 31.1 mph 44.9 mph N/A   Overcast
1:00 AM 37.4 °F 24.8 °F 37.4 °F 100% 29.66 in 10.0 mi NW 31.1 mph 43.7 mph N/A   Overcast
1:15 AM 37.4 °F 24.6 °F 37.4 °F 100% 29.66 in 10.0 mi NW 32.2 mph 42.6 mph N/A   Overcast
1:20 AM 37.4 °F 24.4 °F 37.4 °F 100% 29.66 in 10.0 mi NW 33.4 mph 42.6 mph N/A   Overcast
1:35 AM 37.4 °F 24.4 °F 37.4 °F 100% 29.66 in 10.0 mi NW 33.4 mph 41.4 mph N/A   Overcast
1:40 AM 37.4 °F 25.2 °F 37.4 °F 100% 29.66 in 10.0 mi NW 28.8 mph 41.4 mph N/A   Overcast
1:55 AM 37.4 °F 26.1 °F 37.4 °F 100% 29.67 in 10.0 mi NW 24.2 mph 40.3 mph N/A   Overcast
2:00 AM 37.4 °F 25.6 °F 37.4 °F 100% 29.67 in 10.0 mi NW 26.5 mph 40.3 mph N/A   Overcast
2:15 AM 37.4 °F 25.0 °F 37.4 °F 100% 29.67 in 10.0 mi NW 29.9 mph 38.0 mph N/A   Overcast
2:35 AM 35.6 °F 23.4 °F 35.6 °F 100% 29.67 in 10.0 mi NW 25.3 mph 41.4 mph N/A   Overcast
2:40 AM 35.6 °F 23.4 °F 35.6 °F 100% 29.67 in 10.0 mi NW 25.3 mph 39.1 mph N/A   Overcast
2:55 AM 35.6 °F 23.2 °F 35.6 °F 100% 29.68 in 10.0 mi NW 26.5 mph 34.5 mph N/A   Overcast
3:00 AM 35.6 °F 23.4 °F 35.6 °F 100% 29.68 in 10.0 mi NW 25.3 mph 34.5 mph N/A   Overcast
3:15 AM 35.6 °F 23.2 °F 35.6 °F 100% 29.68 in 10.0 mi NW 26.5 mph 34.5 mph N/A   Overcast
3:35 AM 35.6 °F 23.7 °F 35.6 °F 100% 29.69 in 10.0 mi NW 24.2 mph 35.7 mph N/A   Overcast
3:55 AM 35.6 °F 23.0 °F 35.6 °F 100% 29.69 in 10.0 mi NW 27.6 mph 34.5 mph N/A   Overcast
4:00 AM 35.6 °F 23.4 °F 35.6 °F 100% 29.70 in 10.0 mi NW 25.3 mph 34.5 mph N/A   Overcast
4:35 AM 35.6 °F 23.2 °F 35.6 °F 100% 29.70 in 10.0 mi NW 26.5 mph 33.4 mph N/A   Overcast
4:40 AM 35.6 °F 23.7 °F 35.6 °F 100% 29.71 in 10.0 mi NW 24.2 mph 33.4 mph N/A   Overcast
5:15 AM 33.8 °F 20.8 °F 33.8 °F 100% 29.72 in 10.0 mi NW 26.5 mph 36.8 mph N/A   Overcast
5:35 AM 32.0 °F 18.6 °F 32.0 °F 100% 29.73 in 10.0 mi NW 25.3 mph 34.5 mph N/A   Mostly Cloudy
5:55 AM 32.0 °F 18.9 °F 32.0 °F 100% 29.73 in 10.0 mi NW 24.2 mph 33.4 mph N/A   Clear
6:00 AM 32.0 °F 18.6 °F 32.0 °F 100% 29.73 in 10.0 mi NW 25.3 mph 33.4 mph N/A   Clear
6:15 AM 32.0 °F 18.9 °F 32.0 °F 100% 29.74 in 10.0 mi NW 24.2 mph 32.2 mph N/A   Clear
6:35 AM 32.0 °F 18.9 °F 32.0 °F 100% 29.74 in 10.0 mi NW 24.2 mph 34.5 mph N/A   Clear
6:40 AM 32.0 °F 18.9 °F 32.0 °F 100% 29.74 in 10.0 mi NW 24.2 mph 34.5 mph N/A   Clear
6:55 AM 32.0 °F 18.9 °F 32.0 °F 100% 29.74 in 10.0 mi NW 24.2 mph 32.2 mph N/A   Clear
7:00 AM 32.0 °F 19.2 °F 32.0 °F 100% 29.74 in 10.0 mi NW 23.0 mph 29.9 mph N/A   Clear
7:15 AM 32.0 °F 19.2 °F 32.0 °F 100% 29.75 in 10.0 mi NW 23.0 mph 29.9 mph N/A   Clear
7:20 AM 32.0 °F 19.5 °F 32.0 °F 100% 29.75 in 10.0 mi NW 21.9 mph 29.9 mph N/A   Clear
7:35 AM 32.0 °F 18.9 °F 32.0 °F 100% 29.75 in 10.0 mi NW 24.2 mph 32.2 mph N/A   Clear
7:40 AM 32.0 °F 18.6 °F 30.2 °F 93% 29.75 in 10.0 mi NW 25.3 mph 29.9 mph N/A   Clear
7:55 AM 32.0 °F 19.2 °F 30.2 °F 93% 29.75 in 10.0 mi NW 23.0 mph 36.8 mph N/A   Clear
8:00 AM 32.0 °F 18.1 °F 30.2 °F 93% 29.76 in 10.0 mi NW 27.6 mph 36.8 mph N/A   Clear
8:15 AM 32.0 °F 18.6 °F 30.2 °F 93% 29.76 in 10.0 mi NW 25.3 mph 32.2 mph N/A   Clear
8:35 AM 33.8 °F 21.9 °F 30.2 °F 87% 29.77 in 10.0 mi NW 21.9 mph 32.2 mph N/A   Clear
8:55 AM 35.6 °F 23.0 °F 28.4 °F 75% 29.77 in 10.0 mi NW 27.6 mph 34.5 mph N/A   Clear
9:00 AM 35.6 °F 23.7 °F 28.4 °F 75% 29.77 in 10.0 mi NW 24.2 mph 34.5 mph N/A   Clear
9:15 AM 35.6 °F 23.4 °F 30.2 °F 81% 29.78 in 10.0 mi NW 25.3 mph 38.0 mph N/A   Clear
9:20 AM 35.6 °F 23.4 °F 30.2 °F 81% 29.78 in 10.0 mi NW 25.3 mph 38.0 mph N/A   Clear
9:35 AM 37.4 °F 25.0 °F 32.0 °F 81% 29.79 in 10.0 mi NW 29.9 mph 38.0 mph N/A   Clear
9:40 AM 37.4 °F 26.1 °F 32.0 °F 81% 29.79 in 10.0 mi NW 24.2 mph 38.0 mph N/A   Clear
9:55 AM 37.4 °F 25.4 °F 32.0 °F 81% 29.79 in 10.0 mi NW 27.6 mph 36.8 mph N/A   Clear
10:00 AM 37.4 °F 25.6 °F 32.0 °F 81% 29.79 in 10.0 mi NW 26.5 mph 36.8 mph N/A   Clear
10:15 AM 39.2 °F 27.8 °F 32.0 °F 75% 29.79 in 10.0 mi NW 27.6 mph 35.7 mph N/A   Clear
10:35 AM 39.2 °F 27.4 °F 32.0 °F 75% 29.80 in 10.0 mi NW 29.9 mph 38.0 mph N/A   Clear
10:55 AM 39.2 °F 28.3 °F 32.0 °F 75% 29.80 in 10.0 mi NW 25.3 mph 40.3 mph N/A   Clear
11:00 AM 41.0 °F 30.9 °F 32.0 °F 70% 29.80 in 10.0 mi NW 24.2 mph 34.5 mph N/A   Clear
11:15 AM 41.0 °F 30.0 °F 32.0 °F 70% 29.80 in 10.0 mi NW 28.8 mph 34.5 mph N/A   Clear
11:20 AM 41.0 °F 29.7 °F 32.0 °F 70% 29.81 in 10.0 mi NW 31.1 mph 40.3 mph N/A   Clear
11:35 AM 41.0 °F 30.5 °F 32.0 °F 70% 29.81 in 10.0 mi NW 26.5 mph 35.7 mph N/A   Clear
11:40 AM 41.0 °F 30.5 °F 32.0 °F 70% 29.81 in 10.0 mi NW 26.5 mph 35.7 mph N/A   Clear
11:55 AM 42.8 °F 32.7 °F 32.0 °F 66% 29.81 in 10.0 mi NW 27.6 mph 36.8 mph N/A   Clear
12:15 PM 42.8 °F 33.1 °F 32.0 °F 66% 29.81 in 10.0 mi NW 25.3 mph 38.0 mph N/A   Partly Cloudy
12:20 PM 44.6 °F 35.5 °F 32.0 °F 61% 29.81 in 10.0 mi NW 25.3 mph 38.0 mph N/A   Partly Cloudy
12:35 PM 44.6 °F 35.3 °F 32.0 °F 61% 29.81 in 10.0 mi NW 26.5 mph 34.5 mph N/A   Partly Cloudy
12:40 PM 44.6 °F 34.7 °F 32.0 °F 61% 29.80 in 10.0 mi NW 29.9 mph 35.7 mph N/A   Partly Cloudy
12:55 PM 44.6 °F 35.3 °F 32.0 °F 61% 29.80 in 10.0 mi NW 26.5 mph 35.7 mph N/A   Partly Cloudy
1:00 PM 44.6 °F 34.7 °F 32.0 °F 61% 29.80 in 10.0 mi NW 29.9 mph 35.7 mph N/A   Partly Cloudy
1:15 PM 44.6 °F 35.7 °F 32.0 °F 61% 29.79 in 10.0 mi NW 24.2 mph 36.8 mph N/A   Partly Cloudy
1:20 PM 46.4 °F 37.5 °F 32.0 °F 57% 29.79 in 10.0 mi NW 27.6 mph 34.5 mph N/A   Partly Cloudy
1:35 PM 46.4 °F 37.5 °F 32.0 °F 57% 29.79 in 10.0 mi NW 27.6 mph 39.1 mph N/A   Partly Cloudy
1:55 PM 46.4 °F 37.7 °F 32.0 °F 57% 29.79 in 10.0 mi WNW 26.5 mph 40.3 mph N/A   Partly Cloudy
2:00 PM 46.4 °F 37.9 °F 32.0 °F 57% 29.79 in 10.0 mi NW 25.3 mph 40.3 mph N/A   Partly Cloudy
2:15 PM 46.4 °F 37.4 °F 32.0 °F 57% 29.79 in 10.0 mi NW 28.8 mph 35.7 mph N/A   Partly Cloudy
2:20 PM 46.4 °F 37.9 °F 30.2 °F 53% 29.79 in 10.0 mi NW 25.3 mph 35.7 mph N/A   Partly Cloudy
2:35 PM 48.2 °F - 30.2 °F 50% 29.78 in 10.0 mi WNW 31.1 mph 36.8 mph N/A   Mostly Cloudy
2:40 PM 46.4 °F 37.7 °F 30.2 °F 53% 29.78 in 10.0 mi NW 26.5 mph 36.8 mph N/A   Scattered Clouds
2:55 PM 46.4 °F 38.3 °F 30.2 °F 53% 29.78 in 10.0 mi NW 23.0 mph 33.4 mph N/A   Scattered Clouds
3:00 PM 46.4 °F 37.9 °F 30.2 °F 53% 29.78 in 10.0 mi NW 25.3 mph 34.5 mph N/A   Partly Cloudy
3:15 PM 48.2 °F - 28.4 °F 46% 29.78 in 10.0 mi NW 27.6 mph 34.5 mph N/A   Partly Cloudy
3:20 PM 46.4 °F 37.9 °F 28.4 °F 50% 29.78 in 10.0 mi NW 25.3 mph 34.5 mph N/A   Partly Cloudy
3:35 PM 46.4 °F 38.7 °F 28.4 °F 50% 29.78 in 10.0 mi NW 20.7 mph 35.7 mph N/A   Partly Cloudy
3:40 PM 46.4 °F 37.7 °F 28.4 °F 50% 29.78 in 10.0 mi NW 26.5 mph 36.8 mph N/A   Partly Cloudy
3:55 PM 46.4 °F 38.5 °F 28.4 °F 50% 29.78 in 10.0 mi NW 21.9 mph 34.5 mph N/A   Partly Cloudy
4:15 PM 46.4 °F 38.7 °F 30.2 °F 53% 29.79 in 10.0 mi NW 20.7 mph 28.8 mph N/A   Clear
4:35 PM 46.4 °F 38.1 °F 30.2 °F 53% 29.79 in 10.0 mi NW 24.2 mph 32.2 mph N/A   Partly Cloudy
4:40 PM 46.4 °F 38.3 °F 30.2 °F 53% 29.79 in 10.0 mi NW 23.0 mph 32.2 mph N/A   Partly Cloudy
4:55 PM 46.4 °F 39.2 °F 30.2 °F 53% 29.79 in 10.0 mi NW 18.4 mph 28.8 mph N/A   Partly Cloudy
5:00 PM 46.4 °F 38.7 °F 32.0 °F 57% 29.79 in 10.0 mi NW 20.7 mph 27.6 mph N/A   Partly Cloudy
5:15 PM 46.4 °F 39.5 °F 30.2 °F 53% 29.79 in 10.0 mi WNW 17.3 mph 26.5 mph N/A   Clear
5:20 PM 46.4 °F 39.2 °F 30.2 °F 53% 29.79 in 10.0 mi WNW 18.4 mph 23.0 mph N/A   Clear
5:35 PM 46.4 °F 40.1 °F 30.2 °F 53% 29.79 in 10.0 mi NW 15.0 mph 21.9 mph N/A   Clear
5:40 PM 46.4 °F 40.1 °F 30.2 °F 53% 29.79 in 10.0 mi NW 15.0 mph 21.9 mph N/A   Clear
5:55 PM 44.6 °F 39.2 °F 32.0 °F 61% 29.79 in 10.0 mi WNW 10.4 mph - N/A   Partly Cloudy
6:15 PM 44.6 °F 39.2 °F 32.0 °F 61% 29.79 in 10.0 mi WNW 10.4 mph - N/A   Partly Cloudy
6:20 PM 44.6 °F 38.8 °F 32.0 °F 61% 29.79 in 10.0 mi WNW 11.5 mph - N/A   Partly Cloudy
6:35 PM 41.0 °F 35.2 °F 32.0 °F 70% 29.79 in 10.0 mi WNW 9.2 mph - N/A   Clear
6:40 PM 41.0 °F 35.8 °F 32.0 °F 70% 29.79 in 10.0 mi WNW 8.1 mph - N/A   Clear
6:55 PM 41.0 °F 35.8 °F 32.0 °F 70% 29.80 in 10.0 mi WNW 8.1 mph - N/A   Clear
7:00 PM 39.2 °F 33.6 °F 32.0 °F 75% 29.79 in 10.0 mi WNW 8.1 mph - N/A   Clear
7:15 PM 39.2 °F 35.9 °F 32.0 °F 75% 29.79 in 10.0 mi WNW 4.6 mph - N/A   Clear
7:20 PM 37.4 °F 32.8 °F 33.8 °F 87% 29.79 in 10.0 mi WNW 5.8 mph - N/A   Clear
7:35 PM 39.2 °F 33.6 °F 32.0 °F 75% 29.80 in 10.0 mi WNW 8.1 mph - N/A   Clear
7:55 PM 39.2 °F 34.2 °F 32.0 °F 75% 29.80 in 10.0 mi WNW 6.9 mph - N/A   Clear
8:20 PM 39.2 °F 34.2 °F 32.0 °F 75% 29.80 in 10.0 mi WNW 6.9 mph - N/A   Clear
8:35 PM 37.4 °F 30.8 °F 32.0 °F 81% 29.80 in 10.0 mi WNW 9.2 mph - N/A   Clear
8:40 PM 37.4 °F 30.3 °F 32.0 °F 81% 29.80 in 10.0 mi WNW 10.4 mph - N/A   Clear
8:55 PM 39.2 °F 34.2 °F 32.0 °F 75% 29.79 in 10.0 mi WNW 6.9 mph - N/A   Clear
9:15 PM 37.4 °F 32.8 °F 32.0 °F 81% 29.79 in 10.0 mi WNW 5.8 mph - N/A   Clear
9:20 PM 37.4 °F 32.1 °F 32.0 °F 81% 29.79 in 10.0 mi NW 6.9 mph - N/A   Clear
9:35 PM 35.6 °F 30.7 °F 32.0 °F 87% 29.79 in 10.0 mi NW 5.8 mph - N/A   Clear
9:40 PM 35.6 °F 30.7 °F 32.0 °F 87% 29.79 in 10.0 mi NW 5.8 mph - N/A   Clear
10:15 PM 37.4 °F 32.8 °F 32.0 °F 81% 29.80 in 10.0 mi NW 5.8 mph - N/A   Clear
10:20 PM 37.4 °F 33.8 °F 32.0 °F 81% 29.79 in 10.0 mi WNW 4.6 mph - N/A   Clear
10:35 PM 35.6 °F 31.7 °F 32.0 °F 87% 29.79 in 10.0 mi NW 4.6 mph - N/A   Clear
10:40 PM 33.8 °F 29.6 °F 32.0 °F 93% 29.79 in 10.0 mi NW 4.6 mph - N/A   Clear
10:55 PM 33.8 °F 30.8 °F 32.0 °F 93% 29.79 in 10.0 mi NW 3.5 mph - N/A   Clear
11:15 PM 33.8 °F - 32.0 °F 93% 29.79 in 10.0 mi Calm Calm - N/A   Clear
11:20 PM 35.6 °F - 32.0 °F 87% 29.79 in 10.0 mi Calm Calm - N/A   Clear
11:35 PM 33.8 °F - 32.0 °F 93% 29.79 in 10.0 mi Calm Calm - N/A   Clear
11:40 PM 35.6 °F - 32.0 °F 87% 29.79 in 10.0 mi Calm Calm - N/A   Clear
11:55 PM 33.8 °F - 32.0 °F 93% 29.79 in 10.0 mi Calm Calm - N/A   Clear